{"data":{"norad_id":66741,"epoch":"2026-05-25T03:25:47.097408Z","epoch_age_seconds":56503,"freshness":"FRESH","line1":"1 66741U 25276CD  26145.14290622  .00007718  00000+0  35941-3 0  9997","line2":"2 66741  97.4250 219.2167 0007138  78.1924 282.0111 15.20167598 24220","mean_motion":15.20167598,"eccentricity":0.0007138,"inclination_deg":97.425,"raan_deg":219.2167,"arg_perigee_deg":78.1924,"mean_anomaly_deg":282.0111,"bstar":0.00035941,"rev_number":2422,"period_min":94.72639739819,"perigee_km":500.42121147983,"apogee_km":510.24805558386,"semimajor_km":6883.4716335318,"source":"CELESTRAK","updated_at":"2026-05-25T13:38:06.449128Z"}}